{"data":{"norad_id":63643,"intl_designator":"2025-083K","name":"STARLINK-33558","alt_names":[],"object_type":"PAYLOAD","status":"ACTIVE","operator":null,"country":"US","launch_date":"2025-04-25","launch_site_code":"AFETR","launch_vehicle":null,"mission":null,"orbit_class":"UNKNOWN","rcs_meters":null,"size_class":null,"mass_kg":null,"dimensions":null,"purposes":["comms"],"wikipedia_slug":null,"has_3d_model":false,"image_url":null,"decayed_at":null,"tle_current":{"epoch":"2026-09-20T13:34:28.792992Z","epoch_age_seconds":146783,"freshness":"FRESH","line1":"1 63643U 25083K   26263.56561103  .00010697  00000+0  39760-3 0  9996","line2":"2 63643  43.0000 344.3892 0000804 291.3413  68.7352 15.27586152 79873","mean_motion":15.27586152,"eccentricity":8.04e-5,"inclination_deg":43,"raan_deg":344.3892,"arg_perigee_deg":291.3413,"mean_anomaly_deg":68.7352,"bstar":0.0003976,"rev_number":7987,"period_min":94.266369076119,"perigee_km":482.47903691925,"apogee_km":483.58231268136,"semimajor_km":6861.1676748003,"source":"CELESTRAK","updated_at":"2026-09-21T09:00:35.052354Z"}}}